Location: Navajo Flats
(35.4008°N, 120.2808°W)
Time: 00:38:10
(UTC-08:00)

ISS - Visible Passes

Search period start: 01 December 2020 00:00
Search period end: 11 December 2020 00:00
Orbit: 418 x 420 km, 51.6° (Epoch: 01 December)

Date Brightness Start Highest point End Pass type
(mag) Time Alt. Az. Time Alt. Az. Time Alt. Az.
04 Dec -1.1 18:39:49 10° NNW 18:40:11 12° NNW 18:40:11 12° NNW visible
05 Dec -2.0 17:52:37 10° NNW 17:54:55 17° NNE 17:54:56 17° NNE visible
06 Dec -2.3 18:40:59 10° NW 18:42:53 31° NW 18:42:53 31° NW visible
07 Dec -3.3 17:53:29 10° NW 17:56:42 41° NE 17:58:08 26° E visible
07 Dec -0.2 19:31:06 10° W 19:31:09 10° W 19:31:09 10° W visible
08 Dec -1.8 18:42:47 10° WNW 18:45:44 29° SW 18:46:51 23° SSW visible
09 Dec -3.1 17:54:53 10° NW 17:58:10 55° SW 18:01:28 10° SSE visible
